When you browse on this site, cookies collect data to enhance your experience and personalize the content and advertising you see.
Visit our Privacy Policy to learn more. By continuing to use the site, you agree to this use of cookies and data.
  • In Czech Republic
  • List of Countries
  • For 7 days
  • Water Temperature
  • Weather Map
  • Weather Widgets
  • user-avatar
    Login

    Hourly Weather Kindia

    Today, 17 September, Tuesday

    Time Temperature Precipitation Wind Pressure Humidity
    00:00 +22°C° 0 mm 1 mps 706 mmHg 93%
    01:00 +23°C° 0 mm 1 mps 706 mmHg 93%
    02:00 +22°C° 0 mm 1 mps 706 mmHg 93%
    03:00 +22°C° 0 mm 1 mps 706 mmHg 94%
    04:00 +22°C° 0 mm 1 mps 706 mmHg 95%
    05:00 +22°C° 0 mm 1 mps 706 mmHg 94%
    06:00 +23°C° 0 mm 1 mps 706 mmHg 93%
    07:00 +23°C° 0 mm 2 mps 707 mmHg 92%
    08:00 +25°C° 0 mm 2 mps 707 mmHg 84%
    09:00 +26°C° 0 mm 2 mps 707 mmHg 77%
    10:00 +28°C° 0 mm 3 mps 708 mmHg 70%
    11:00 +29°C° 0 mm 2 mps 707 mmHg 67%
    12:00 +30°C° 0 mm 1 mps 706 mmHg 64%
    13:00 +30°C° 0 mm 1 mps 706 mmHg 61%
    14:00 +30°C° 0.3 mm 1 mps 705 mmHg 62%
    15:00 +30°C° 0.3 mm 1 mps 705 mmHg 63%
    16:00 +30°C° 0.3 mm 1 mps 704 mmHg 65%
    17:00 +28°C° 1.3 mm 1 mps 705 mmHg 72%
    18:00 +27°C° 1.3 mm 1 mps 705 mmHg 79%
    19:00 +25°C° 1.3 mm 1 mps 705 mmHg 86%
    20:00 +24°C° 0.1 mm 1 mps 705 mmHg 86%
    21:00 +24°C° 0.1 mm 1 mps 706 mmHg 87%
    22:00 +24°C° 0.1 mm 1 mps 706 mmHg 87%
    23:00 +24°C° 0 mm 1 mps 706 mmHg 89%

    Tomorrow, 18 September, Wednesday

    Time Temperature Precipitation Wind Pressure Humidity
    00:00 +23°C° 0 mm 1 mps 705 mmHg 90%
    01:00 +23°C° 0 mm 1 mps 705 mmHg 91%
    02:00 +21°C° 0 mm 0 mps 705 mmHg 92%
    03:00 +21°C° 0 mm 0 mps 705 mmHg 92%
    04:00 +21°C° 0 mm 0 mps 705 mmHg 93%
    05:00 +21°C° 0.1 mm 0 mps 705 mmHg 92%
    06:00 +23°C° 0.1 mm 1 mps 706 mmHg 91%
    07:00 +24°C° 0.1 mm 1 mps 707 mmHg 90%
    08:00 +25°C° 0.4 mm 1 mps 707 mmHg 86%
    09:00 +27°C° 0.4 mm 1 mps 707 mmHg 81%
    10:00 +28°C° 0.4 mm 2 mps 707 mmHg 76%
    11:00 +29°C° 1.2 mm 2 mps 707 mmHg 73%
    12:00 +30°C° 1.2 mm 2 mps 706 mmHg 71%
    13:00 +30°C° 1.2 mm 2 mps 706 mmHg 68%
    14:00 +30°C° 1.8 mm 1 mps 706 mmHg 71%
    15:00 +29°C° 1.8 mm 1 mps 705 mmHg 74%
    16:00 +29°C° 1.8 mm 1 mps 705 mmHg 77%
    17:00 +27°C° 1.1 mm 1 mps 705 mmHg 81%
    18:00 +26°C° 1.1 mm 1 mps 705 mmHg 85%
    19:00 +24°C° 1.1 mm 1 mps 706 mmHg 89%
    20:00 +24°C° 0.2 mm 1 mps 706 mmHg 89%
    21:00 +23°C° 0.2 mm 1 mps 706 mmHg 90%
    22:00 +23°C° 0.2 mm 1 mps 707 mmHg 91%
    23:00 +21°C° 0.1 mm 0 mps 707 mmHg 91%

    Day after tomorrow, 19 September, Thursday

    Time Temperature Precipitation Wind Pressure Humidity
    00:00 +21°C° 0.1 mm 0 mps 707 mmHg 92%
    01:00 +21°C° 0.1 mm 0 mps 707 mmHg 92%
    02:00 +20°C° 0.3 mm 0 mps 707 mmHg 93%
    03:00 +20°C° 0.3 mm 0 mps 706 mmHg 93%
    04:00 +20°C° 0.3 mm 0 mps 706 mmHg 94%
    05:00 +20°C° 0.2 mm 0 mps 707 mmHg 94%
    06:00 +23°C° 0.2 mm 1 mps 707 mmHg 94%
    07:00 +23°C° 0.2 mm 1 mps 707 mmHg 93%
    08:00 +24°C° 0 mm 1 mps 708 mmHg 88%
    09:00 +26°C° 0 mm 2 mps 708 mmHg 83%
    10:00 +27°C° 0 mm 3 mps 709 mmHg 77%
    11:00 +28°C° 0 mm 2 mps 708 mmHg 76%
    12:00 +28°C° 0 mm 2 mps 707 mmHg 75%
    13:00 +28°C° 0 mm 2 mps 707 mmHg 74%
    14:00 +29°C° 0 mm 2 mps 706 mmHg 72%
    15:00 +29°C° 0 mm 2 mps 706 mmHg 70%
    16:00 +30°C° 0 mm 1 mps 706 mmHg 69%
    17:00 +28°C° 1 mm 1 mps 706 mmHg 75%
    18:00 +27°C° 1 mm 1 mps 706 mmHg 82%
    19:00 +25°C° 1 mm 1 mps 706 mmHg 88%
    20:00 +25°C° 0.1 mm 1 mps 706 mmHg 89%
    21:00 +25°C° 0.1 mm 1 mps 707 mmHg 89%
    22:00 +24°C° 0.1 mm 1 mps 707 mmHg 90%
    23:00 +24°C° 0 mm 1 mps 707 mmHg 91%

    20 September, Friday

    Time Temperature Precipitation Wind Pressure Humidity
    00:00 +24°C° 0 mm 1 mps 707 mmHg 92%
    01:00 +24°C° 0 mm 1 mps 706 mmHg 92%
    02:00 +24°C° 0 mm 1 mps 706 mmHg 93%
    03:00 +24°C° 0 mm 1 mps 706 mmHg 94%
    04:00 +23°C° 0 mm 1 mps 706 mmHg 94%
    05:00 +23°C° 0 mm 1 mps 706 mmHg 94%
    06:00 +23°C° 0 mm 2 mps 707 mmHg 95%
    07:00 +22°C° 0 mm 3 mps 707 mmHg 95%
    08:00 +25°C° 0 mm 3 mps 707 mmHg 89%
    09:00 +26°C° 0 mm 3 mps 708 mmHg 82%
    10:00 +28°C° 0 mm 3 mps 708 mmHg 76%
    11:00 +29°C° 0 mm 3 mps 708 mmHg 73%
    12:00 +30°C° 0 mm 3 mps 707 mmHg 69%
    13:00 +31°C° 0 mm 2 mps 707 mmHg 66%
    14:00 +30°C° 0.3 mm 2 mps 706 mmHg 69%
    15:00 +30°C° 0.3 mm 2 mps 706 mmHg 72%
    16:00 +29°C° 0.3 mm 2 mps 705 mmHg 75%
    17:00 +28°C° 0.1 mm 2 mps 706 mmHg 80%
    18:00 +27°C° 0.1 mm 2 mps 706 mmHg 85%
    19:00 +25°C° 0.1 mm 2 mps 706 mmHg 90%
    20:00 +25°C° 0 mm 2 mps 706 mmHg 91%
    21:00 +25°C° 0 mm 2 mps 706 mmHg 92%
    22:00 +24°C° 0 mm 2 mps 707 mmHg 92%
    23:00 +24°C° 0 mm 2 mps 706 mmHg 93%

    21 September, Saturday

    Time Temperature Precipitation Wind Pressure Humidity
    00:00 +23°C° 0 mm 2 mps 706 mmHg 94%
    01:00 +23°C° 0 mm 2 mps 706 mmHg 95%
    02:00 +23°C° 0 mm 2 mps 706 mmHg 96%
    03:00 +21°C° 0 mm 2 mps 706 mmHg 96%
    04:00 +22°C° 0 mm 1 mps 705 mmHg 97%
    05:00 +21°C° 0 mm 2 mps 706 mmHg 96%
    06:00 +23°C° 0 mm 2 mps 707 mmHg 95%
    07:00 +22°C° 0 mm 3 mps 707 mmHg 94%
    08:00 +24°C° 0 mm 3 mps 707 mmHg 89%
    09:00 +26°C° 0 mm 3 mps 708 mmHg 84%
    10:00 +27°C° 0 mm 3 mps 708 mmHg 78%
    11:00 +28°C° 0 mm 3 mps 707 mmHg 73%
    12:00 +30°C° 0 mm 2 mps 707 mmHg 68%
    13:00 +31°C° 0 mm 2 mps 707 mmHg 63%
    14:00 +31°C° 0.1 mm 2 mps 706 mmHg 65%
    15:00 +30°C° 0.1 mm 2 mps 706 mmHg 67%
    16:00 +30°C° 0.1 mm 2 mps 705 mmHg 68%
    17:00 +28°C° 3.3 mm 2 mps 705 mmHg 77%
    18:00 +26°C° 3.3 mm 2 mps 705 mmHg 85%
    19:00 +24°C° 3.3 mm 2 mps 706 mmHg 93%
    20:00 +24°C° 0.4 mm 2 mps 706 mmHg 93%
    21:00 +24°C° 0.4 mm 2 mps 706 mmHg 92%
    22:00 +23°C° 0.4 mm 1 mps 707 mmHg 92%
    23:00 +23°C° 0 mm 1 mps 706 mmHg 92%

    22 September, Sunday

    Time Temperature Precipitation Wind Pressure Humidity
    00:00 +23°C° 0 mm 1 mps 706 mmHg 92%
    01:00 +22°C° 0 mm 1 mps 705 mmHg 92%
    02:00 +22°C° 0 mm 1 mps 705 mmHg 92%
    03:00 +22°C° 0 mm 1 mps 705 mmHg 92%
    04:00 +22°C° 0 mm 1 mps 705 mmHg 92%
    05:00 +22°C° 0 mm 1 mps 706 mmHg 92%
    06:00 +22°C° 0 mm 1 mps 706 mmHg 92%
    07:00 +22°C° 0 mm 1 mps 707 mmHg 93%
    08:00 +23°C° 0 mm 2 mps 707 mmHg 90%
    09:00 +24°C° 0 mm 2 mps 707 mmHg 88%
    10:00 +25°C° 0 mm 2 mps 707 mmHg 86%
    11:00 +27°C° 0 mm 2 mps 707 mmHg 79%
    12:00 +28°C° 0 mm 1 mps 707 mmHg 72%
    13:00 +30°C° 0 mm 1 mps 706 mmHg 65%
    14:00 +30°C° 0 mm 1 mps 706 mmHg 64%
    15:00 +30°C° 0 mm 1 mps 705 mmHg 63%
    16:00 +30°C° 0 mm 1 mps 705 mmHg 62%
    17:00 +28°C° 0 mm 1 mps 705 mmHg 70%
    18:00 +27°C° 0 mm 1 mps 705 mmHg 78%
    19:00 +25°C° 0 mm 1 mps 704 mmHg 85%
    20:00 +25°C° 0 mm 1 mps 705 mmHg 85%
    21:00 +22°C° 0 mm 0 mps 706 mmHg 86%
    22:00 +22°C° 0 mm 0 mps 706 mmHg 86%
    23:00 +22°C° 0.5 mm 0 mps 706 mmHg 87%
    Show more